When you browse on this site, cookies collect data to enhance your experience and personalize the content and advertising you see.
Visit our Privacy Policy to learn more. By continuing to use the site, you agree to this use of cookies and data.
  • In Hungary
  • List of Countries
  • For 7 days
  • Water Temperature
  • Satellite Maps
  • Weather Map
  • News
  • Weather Widgets
  • user-avatar
    Login

    Hourly Weather Sébaco

    Today, 21 January, Monday

    Time Temperature Precipitation Wind Pressure Humidity
    00:00 +22°C° 0 mm 4 mps 719 mmHg 78%
    01:00 +22°C° 0 mm 4 mps 719 mmHg 79%
    02:00 +21°C° 0 mm 4 mps 719 mmHg 80%
    03:00 +21°C° 0 mm 4 mps 719 mmHg 82%
    04:00 +21°C° 0 mm 5 mps 719 mmHg 80%
    05:00 +21°C° 0 mm 5 mps 719 mmHg 79%
    06:00 +22°C° 0 mm 5 mps 719 mmHg 77%
    07:00 +23°C° 0 mm 6 mps 719 mmHg 71%
    08:00 +26°C° 0 mm 7 mps 720 mmHg 64%
    09:00 +27°C° 0 mm 9 mps 720 mmHg 57%
    10:00 +28°C° 0 mm 8 mps 720 mmHg 54%
    11:00 +29°C° 0 mm 8 mps 720 mmHg 52%
    12:00 +31°C° 0 mm 8 mps 720 mmHg 50%
    13:00 +31°C° 0 mm 8 mps 719 mmHg 51%
    14:00 +29°C° 0 mm 8 mps 719 mmHg 53%
    15:00 +29°C° 0 mm 8 mps 718 mmHg 55%
    16:00 +28°C° 0 mm 7 mps 718 mmHg 60%
    17:00 +26°C° 0 mm 6 mps 718 mmHg 66%
    18:00 +24°C° 0 mm 6 mps 718 mmHg 72%
    19:00 +23°C° 0 mm 6 mps 719 mmHg 73%
    20:00 +23°C° 0 mm 6 mps 719 mmHg 75%
    21:00 +23°C° 0 mm 6 mps 720 mmHg 77%
    22:00 +22°C° 0 mm 6 mps 719 mmHg 76%
    23:00 +22°C° 0 mm 6 mps 719 mmHg 76%

    Tomorrow, 22 January, Tuesday

    Time Temperature Precipitation Wind Pressure Humidity
    00:00 +22°C° 0 mm 6 mps 719 mmHg 76%
    01:00 +22°C° 0 mm 5 mps 719 mmHg 77%
    02:00 +21°C° 0 mm 5 mps 718 mmHg 79%
    03:00 +21°C° 0 mm 4 mps 718 mmHg 80%
    04:00 +21°C° 0 mm 4 mps 718 mmHg 80%
    05:00 +21°C° 0 mm 5 mps 718 mmHg 80%
    06:00 +21°C° 0 mm 5 mps 718 mmHg 80%
    07:00 +23°C° 0 mm 5 mps 719 mmHg 72%
    08:00 +26°C° 0 mm 6 mps 720 mmHg 64%
    09:00 +27°C° 0 mm 7 mps 720 mmHg 56%
    10:00 +29°C° 0 mm 7 mps 720 mmHg 53%
    11:00 +30°C° 0 mm 7 mps 720 mmHg 49%
    12:00 +32°C° 0 mm 7 mps 720 mmHg 46%
    13:00 +32°C° 0 mm 7 mps 719 mmHg 46%
    14:00 +32°C° 0 mm 7 mps 718 mmHg 46%
    15:00 +32°C° 0 mm 7 mps 717 mmHg 47%
    16:00 +29°C° 0 mm 6 mps 717 mmHg 52%
    17:00 +27°C° 0 mm 5 mps 717 mmHg 58%
    18:00 +26°C° 0 mm 5 mps 717 mmHg 64%
    19:00 +25°C° 0 mm 4 mps 718 mmHg 69%
    20:00 +23°C° 0 mm 4 mps 718 mmHg 73%
    21:00 +22°C° 0 mm 4 mps 719 mmHg 78%
    22:00 +22°C° 0 mm 4 mps 719 mmHg 80%
    23:00 +22°C° 0 mm 4 mps 719 mmHg 82%

    Day after tomorrow, 23 January, Wednesday

    Time Temperature Precipitation Wind Pressure Humidity
    00:00 +22°C° 0 mm 4 mps 718 mmHg 84%
    01:00 +21°C° 0 mm 4 mps 718 mmHg 85%
    02:00 +21°C° 0 mm 4 mps 718 mmHg 86%
    03:00 +21°C° 0 mm 3 mps 717 mmHg 87%
    04:00 +21°C° 0 mm 3 mps 718 mmHg 87%
    05:00 +21°C° 0 mm 3 mps 718 mmHg 86%
    06:00 +21°C° 0 mm 3 mps 718 mmHg 85%
    07:00 +23°C° 0 mm 4 mps 719 mmHg 79%
    08:00 +25°C° 0 mm 5 mps 719 mmHg 73%
    09:00 +26°C° 0 mm 5 mps 720 mmHg 67%
    10:00 +28°C° 0 mm 5 mps 719 mmHg 61%
    11:00 +29°C° 0 mm 5 mps 719 mmHg 55%
    12:00 +32°C° 0 mm 6 mps 719 mmHg 49%
    13:00 +32°C° 0 mm 6 mps 718 mmHg 48%
    14:00 +32°C° 0 mm 6 mps 717 mmHg 46%
    15:00 +33°C° 0 mm 6 mps 716 mmHg 45%
    16:00 +30°C° 0 mm 5 mps 716 mmHg 53%
    17:00 +28°C° 0 mm 4 mps 716 mmHg 62%
    18:00 +26°C° 0 mm 3 mps 716 mmHg 70%
    19:00 +25°C° 0 mm 3 mps 717 mmHg 74%
    20:00 +24°C° 0 mm 3 mps 718 mmHg 78%
    21:00 +22°C° 0 mm 3 mps 718 mmHg 82%
    22:00 +21°C° 0 mm 3 mps 718 mmHg 85%
    23:00 +21°C° 0 mm 2 mps 718 mmHg 88%

    24 January, Thursday

    Time Temperature Precipitation Wind Pressure Humidity
    00:00 +20°C° 0 mm 2 mps 718 mmHg 91%
    01:00 +20°C° 0 mm 2 mps 717 mmHg 92%
    02:00 +20°C° 0 mm 2 mps 717 mmHg 92%
    03:00 +20°C° 0 mm 2 mps 716 mmHg 92%
    04:00 +20°C° 0 mm 2 mps 717 mmHg 92%
    05:00 +20°C° 0 mm 2 mps 717 mmHg 92%
    06:00 +20°C° 0 mm 2 mps 717 mmHg 93%
    07:00 +22°C° 0 mm 3 mps 718 mmHg 81%
    08:00 +26°C° 0 mm 3 mps 719 mmHg 70%
    09:00 +28°C° 0 mm 4 mps 720 mmHg 59%
    10:00 +29°C° 0 mm 4 mps 720 mmHg 54%
    11:00 +32°C° 0 mm 5 mps 719 mmHg 49%
    12:00 +33°C° 0 mm 5 mps 719 mmHg 44%
    13:00 +33°C° 0 mm 5 mps 718 mmHg 43%
    14:00 +34°C° 0 mm 5 mps 717 mmHg 43%
    15:00 +34°C° 0 mm 5 mps 716 mmHg 42%
    16:00 +30°C° 0 mm 4 mps 716 mmHg 52%
    17:00 +28°C° 0 mm 3 mps 717 mmHg 62%
    18:00 +26°C° 0 mm 3 mps 717 mmHg 72%
    19:00 +25°C° 0 mm 3 mps 717 mmHg 76%
    20:00 +24°C° 0 mm 3 mps 718 mmHg 80%
    21:00 +22°C° 0 mm 3 mps 719 mmHg 84%
    22:00 +22°C° 0 mm 3 mps 719 mmHg 85%
    23:00 +22°C° 0 mm 3 mps 718 mmHg 86%

    25 January, Friday

    Time Temperature Precipitation Wind Pressure Humidity
    00:00 +22°C° 0 mm 3 mps 718 mmHg 88%
    01:00 +21°C° 0 mm 3 mps 718 mmHg 88%
    02:00 +21°C° 0 mm 3 mps 717 mmHg 88%
    03:00 +21°C° 0 mm 3 mps 717 mmHg 88%
    04:00 +21°C° 0 mm 3 mps 717 mmHg 87%
    05:00 +21°C° 0 mm 3 mps 718 mmHg 86%
    06:00 +21°C° 0 mm 3 mps 718 mmHg 86%
    07:00 +23°C° 0 mm 4 mps 719 mmHg 77%
    08:00 +26°C° 0 mm 5 mps 719 mmHg 69%
    09:00 +27°C° 0 mm 6 mps 720 mmHg 61%
    10:00 +29°C° 0 mm 6 mps 719 mmHg 55%
    11:00 +30°C° 0 mm 6 mps 719 mmHg 49%
    12:00 +33°C° 0 mm 6 mps 719 mmHg 43%
    13:00 +33°C° 0 mm 6 mps 718 mmHg 43%
    14:00 +33°C° 0 mm 6 mps 717 mmHg 42%
    15:00 +33°C° 0 mm 6 mps 716 mmHg 42%
    16:00 +32°C° 0 mm 5 mps 717 mmHg 48%
    17:00 +29°C° 0 mm 4 mps 717 mmHg 54%
    18:00 +27°C° 0 mm 3 mps 717 mmHg 61%
    19:00 +26°C° 0 mm 3 mps 718 mmHg 66%
    20:00 +25°C° 0 mm 3 mps 718 mmHg 72%
    21:00 +24°C° 0 mm 3 mps 719 mmHg 78%
    22:00 +24°C° 0 mm 3 mps 719 mmHg 81%
    23:00 +23°C° 0 mm 2 mps 719 mmHg 85%

    26 January, Saturday

    Time Temperature Precipitation Wind Pressure Humidity
    00:00 +23°C° 0 mm 2 mps 719 mmHg 88%
    01:00 +21°C° 0 mm 2 mps 718 mmHg 89%
    02:00 +21°C° 0 mm 2 mps 718 mmHg 89%
    03:00 +21°C° 0 mm 2 mps 717 mmHg 89%
    04:00 +21°C° 0 mm 2 mps 717 mmHg 90%
    05:00 +20°C° 0 mm 2 mps 718 mmHg 91%
    06:00 +20°C° 0 mm 2 mps 718 mmHg 91%
    07:00 +22°C° 0 mm 3 mps 718 mmHg 78%
    08:00 +26°C° 0 mm 4 mps 719 mmHg 64%
    09:00 +28°C° 0 mm 5 mps 720 mmHg 50%
    10:00 +30°C° 0 mm 5 mps 719 mmHg 47%
    11:00 +32°C° 0 mm 5 mps 719 mmHg 43%
    12:00 +34°C° 0 mm 5 mps 718 mmHg 39%
    13:00 +34°C° 0 mm 5 mps 717 mmHg 39%
    14:00 +34°C° 0 mm 5 mps 717 mmHg 39%
    15:00 +34°C° 0 mm 4 mps 716 mmHg 39%
    16:00 +32°C° 0.1 mm 4 mps 716 mmHg 50%
    17:00 +28°C° 0.1 mm 4 mps 716 mmHg 61%
    18:00 +26°C° 0.1 mm 3 mps 716 mmHg 73%
    19:00 +25°C° 0 mm 3 mps 717 mmHg 77%
    20:00 +24°C° 0 mm 3 mps 717 mmHg 82%
    21:00 +23°C° 0 mm 2 mps 718 mmHg 87%
    22:00 +23°C° 0 mm 2 mps 718 mmHg 88%
    23:00 +21°C° 0 mm 2 mps 718 mmHg 88%
    Show more